Tracking 28792 objects as of 25-Apr-2024
HD Live streaming from Space Station
objects crossing your sky now

STARLINK-31235

Track STARLINK-31235 now!
10-day predictions
STARLINK-31235 is classified as:


NORAD ID: 59038
Int'l Code: 2024-038R
Perigee: 494.3 km
Apogee: 495.9 km
Inclination: 43.0 °
Period: 94.4 minutes
Semi major axis: 6866 km
RCS: Unknown
Launch date: February 25, 2024
Source: United States (US)
Launch site: AIR FORCE EASTERN TEST RANGE (AFETR)
Your satellite tracking list
Your tracking list is empty




NASA's NSSDC Master Catalog

Two Line Element Set (TLE):
1 59038U 24038R   24115.52916208  .00007133  00000-0  28199-3 0  9994
2 59038  43.0014 283.1392 0001187 242.8177 117.2553 15.25939961 10213
Source of the keplerian elements: AFSPC